Temperature
16 17 17 17 14 12 14 15 15 16 15 16 16 16 15 15 16 16 16 16 16 16 15 15 15 15 15 15 15 15 15 15 15 15 15 15 15 15 15 15 15 15 15 15 14 14 14 14 14
16 16 17 16 13 13 14 15 15 15 16 16 16 16 15 15 15 16 16 16 16 16 15 15 15 15 15 15 15 15 15 15 15 15 15 15 15 15 15 15 15 15 15 15 14 14 14 14 14
16 16 16 12 12 13 15 15 15 15 16 16 15 15 15 15 15 15 16 16 15 15 15 15 15 15 15 15 15 15 15 14 14 14 15 15 15 15 15 15 14 14 14 14 14 14 14 14 14
16 16 15 12 13 13 14 15 14 14 16 16 15 14 14 15 15 15 15 15 15 15 15 15 15 15 15 15 15 15 15 14 14 14 14 14 15 15 15 14 14 14 14 14 14 14 14 14 14
15 15 12 12 13 13 13 14 14 14 14 15 15 14 14 14 15 15 15 15 15 15 15 15 14 14 14 15 15 15 14 14 14 14 14 14 14 14 14 14 14 14 14 14 14 14 14 14 14
15 12 11 12 13 13 13 14 14 14 14 14 14 13 14 14 14 15 15 15 15 15 14 14 14 14 14 14 15 15 14 14 14 14 14 14 14 14 14 14 14 14 14 14 14 14 14 14 14
13 10 11 12 12 13 13 14 14 13 13 14 14 13 13 14 14 14 14 14 14 14 14 14 14 14 14 14 14 14 14 14 14 14 14 14 14 14 14 14 14 14 14 14 14 14 13 13 13
13 10 11 11 12 13 13 14 14 14 13 14 14 13 13 13 14 14 14 14 14 14 14 14 14 14 14 14 14 14 14 14 14 14 14 14 14 14 14 14 14 14 14 14 13 13 13 13 13
13 9 10 11 12 13 13 13 13 13 13 13 13 13 13 13 13 13 13 13 13 13 13 13 13 14 14 13 13 14 13 13 13 14 14 14 14 14 14 14 14 13 13 13 13 13 13 13 13
12 9 11 11 11 12 12 12 12 13 12 12 12 13 13 13 13 13 13 13 13 13 13 13 13 13 13 13 13 13 13 13 13 13 13 13 13 13 13 13 13 13 13 13 13 13 13 13 13
10 10 11 11 12 12 12 12 12 12 11 11 12 12 12 12 12 13 13 13 13 13 13 13 13 13 13 13 13 13 13 13 13 13 13 13 13 13 13 13 13 13 13 13 13 13 13 12 12
9 9 10 11 11 12 11 11 11 11 11 12 12 12 12 12 12 12 12 12 12 12 12 12 12 12 12 12 13 13 12 12 12 12 12 12 12 13 13 13 13 12 12 12 12 12 12 12 12
9 9 10 10 11 11 11 10 10 10 11 12 12 12 12 12 12 12 12 12 12 12 12 12 12 12 12 12 12 12 12 12 12 12 12 12 12 12 12 12 12 12 12 12 12 12 12 12 12
9 9 9 10 10 10 10 9 9 9 10 11 11 11 11 11 11 11 11 11 12 12 12 12 12 12 12 12 12 12 12 12 12 12 12 11 12 12 12 12 12 12 12 12 12 12 12 12 12
9 8 9 9 9 9 10 9 8 9 10 10 10 10 10 10 10 11 11 11 11 11 11 11 11 11 11 11 11 11 11 11 11 11 11 11 11 11 11 11 11 11 11 11 11 11 11 11 11
8 8 8 8 8 9 9 9 8 9 9 8 9 9 9 9 10 10 10 10 10 10 11 11 11 11 11 11 11 11 11 11 11 11 11 11 11 11 11 11 11 11 11 11 11 11 11 11 11
7 7 7 8 8 8 8 8 7 8 8 7 8 8 8 9 9 9 9 9 10 10 10 10 10 10 10 10 10 10 10 10 10 10 10 10 10 10 10 10 10 10 10 10 10 10 10 10 11
7 6 7 7 7 7 7 6 6 7 7 7 7 7 8 8 8 9 9 9 9 9 9 10 10 10 10 10 10 10 10 10 10 10 10 10 10 10 10 10 10 10 10 10 10 10 10 10 10
6 6 6 7 6 6 6 6 6 6 6 6 6 7 7 8 8 8 8 9 9 9 9 9 9 9 9 9 9 9 10 9 10 10 10 10 9 9 9 9 9 9 9 9 9 9 9 9 9
6 6 6 6 6 6 5 5 5 5 5 6 6 6 7 7 7 8 8 8 8 8 8 8 8 8 8 9 9 9 9 9 9 9 9 9 9 9 9 9 9 9 9 9 9 9 9 9 9
6 5 6 6 5 5 5 5 5 5 5 5 6 6 6 7 7 7 7 8 8 8 8 8 8 8 8 8 8 8 8 8 8 8 8 8 8 8 8 8 8 8 8 8 8 8 8 8 8
6 5 5 5 5 4 4 5 5 5 4 4 5 5 6 6 7 7 7 7 7 7 7 7 7 7 7 7 7 7 7 7 8 8 8 8 8 8 8 8 8 8 8 8 8 8 7 7 7
5 5 4 4 4 3 3 3 4 4 4 4 4 5 6 6 6 6 7 7 7 7 7 7 7 7 7 7 7 7 7 7 7 7 7 7 7 7 7 7 7 7 7 7 7 7 7 7 7
4 4 3 2 2 4 3 3 4 3 4 4 4 5 5 5 6 6 6 6 6 6 6 6 6 6 6 6 6 6 6 6 6 6 6 7 7 7 7 7 7 7 7 7 7 7 7 6 6
4 3 3 3 2 3 2 3 3 4 3 3 3 4 5 5 5 5 5 5 6 6 6 6 6 6 6 6 6 6 6 6 6 6 6 6 6 6 6 6 6 6 6 6 6 6 6 6 6
3 4 3 3 2 2 2 2 3 3 3 3 3 4 4 4 5 5 5 5 5 5 5 5 5 5 5 5 5 5 5 5 5 5 5 5 5 6 6 6 6 6 6 6 6 6 5 5 5
3 2 2 1 1 1 2 1 2 2 2 2 2 3 3 4 4 4 4 4 4 4 5 4 4 4 4 4 4 4 4 4 4 4 4 4 4 5 5 5 5 5 5 5 5 5 5 5 5
3 2 1 2 2 3 2 2 3 3 3 2 1 2 3 3 4 4 4 4 4 4 4 4 4 4 4 4 4 4 4 4 4 4 4 4 4 4 4 4 4 5 5 5 5 5 5 4 5
2 2 1 0 1 2 2 3 2 2 2 1 1 2 2 3 3 3 3 3 3 3 3 3 3 3 3 3 3 3 3 3 3 3 3 3 3 3 3 4 4 4 4 4 4 4 4 4 4
2 2 1 2 1 -0 -0 2 2 1 1 1 1 2 2 2 2 2 2 2 2 2 2 2 2 2 3 3 3 2 2 2 2 2 2 2 3 3 3 3 3 3 3 3 3 3 3 3 3
Wind_Speed
9 6 2 4 5 4 2 4 2 1 0 0 1 4 5 5 3 3 0 2 5 6 7 8 10 10 10 10 10 10 10 11 11 12 12 12 11 11 11 11 12 11 11 11 12 12 13 13 13
4 3 5 5 5 2 4 4 3 3 2 2 3 4 4 2 1 3 2 2 6 7 7 8 11 10 10 10 10 10 10 10 10 11 11 11 10 10 10 10 11 10 11 11 11 11 12 12 13
2 4 4 5 4 6 5 3 3 1 1 2 3 3 3 1 1 2 1 5 6 6 6 8 11 10 10 9 9 9 10 9 10 10 10 10 10 9 9 9 10 9 9 10 10 10 11 12 12
3 5 5 4 4 5 4 2 1 1 2 3 3 3 2 2 1 1 3 6 7 5 6 8 10 10 10 9 9 9 9 9 10 10 9 9 9 9 9 9 9 9 9 9 9 10 10 10 10
4 4 3 1 4 3 3 2 1 1 1 2 2 3 1 4 3 4 6 7 7 5 5 7 9 9 9 8 8 8 8 8 9 9 9 8 8 8 8 8 8 8 8 8 8 8 9 9 9
4 4 3 5 5 3 3 2 1 1 0 1 2 3 1 3 4 4 5 5 5 5 5 6 9 9 8 8 8 8 8 8 7 8 8 7 7 7 7 8 8 7 7 7 7 7 8 8 8
4 4 5 5 4 3 3 1 2 2 0 1 2 3 0 2 2 4 6 6 6 6 5 5 6 7 7 7 7 7 7 7 7 7 6 7 7 6 6 7 7 6 6 6 6 6 7 7 7
4 5 4 4 5 4 1 1 1 2 2 1 2 4 3 1 4 6 7 6 5 5 5 4 5 5 6 6 7 7 6 6 6 6 6 6 6 6 6 5 6 6 5 5 5 5 5 6 5
4 3 5 6 6 3 1 1 1 1 2 2 2 1 0 6 7 7 6 5 4 4 3 4 4 5 5 5 6 6 6 6 6 6 6 5 5 5 5 5 5 5 5 4 4 4 4 5 5
4 4 7 3 4 3 1 1 1 2 2 2 3 4 5 7 7 8 5 4 3 2 1 2 3 4 5 4 4 5 5 5 5 5 5 5 4 4 4 4 4 4 4 4 4 4 4 4 4
3 5 3 1 1 1 1 0 1 4 1 3 3 3 4 6 6 5 5 3 3 2 1 1 2 3 4 3 4 4 4 4 4 4 4 4 4 3 3 3 3 2 2 3 2 3 3 3 3
3 1 1 1 1 1 1 1 1 1 2 1 3 5 6 6 5 4 4 3 1 2 1 1 2 3 3 3 3 3 3 3 3 3 3 4 3 3 2 2 2 2 2 2 2 2 2 2 2
2 1 0 1 1 1 2 0 2 1 1 2 5 5 6 5 3 2 2 2 2 1 0 0 1 2 2 2 2 2 2 2 3 3 3 4 3 2 2 2 2 2 2 2 2 2 2 1 1
2 1 0 1 1 1 1 1 1 2 2 4 5 4 3 4 3 2 2 2 1 1 1 0 1 1 2 2 1 1 2 2 3 3 2 3 3 3 2 2 1 1 2 2 2 2 3 2 2
2 2 2 1 1 0 2 2 3 3 3 3 2 2 2 2 2 2 2 1 0 1 0 1 1 1 1 1 2 1 2 2 2 2 2 2 3 3 3 2 2 2 2 2 2 1 2 2 2
3 2 1 2 1 1 3 7 4 1 4 3 2 1 1 0 1 1 1 1 1 2 1 0 1 1 1 1 1 1 1 2 2 2 2 2 2 3 3 2 2 2 2 2 1 1 1 2 2
2 2 4 3 1 1 3 6 3 1 4 4 3 2 1 0 1 1 1 1 1 1 2 1 1 1 1 1 1 1 1 1 1 1 1 1 1 2 3 3 2 2 2 1 1 1 1 2 1
5 4 3 4 2 2 4 7 5 3 4 5 4 3 2 2 3 1 1 1 1 1 2 2 2 1 1 0 1 1 1 0 0 0 1 1 1 1 2 2 2 2 2 1 1 1 1 1 1
4 4 4 3 1 2 6 8 8 4 4 6 5 4 4 3 3 1 1 1 2 2 2 2 2 2 1 0 0 1 1 1 1 1 1 1 1 1 1 1 2 2 2 2 2 1 1 1 0
3 3 3 2 1 1 4 8 7 5 6 7 8 7 6 3 2 1 1 1 1 1 1 2 2 2 2 1 1 1 1 1 1 1 1 1 1 1 2 2 2 2 2 2 2 2 1 1 1
4 5 4 3 2 2 3 7 5 4 4 4 6 5 5 5 4 3 2 1 0 1 1 1 1 2 2 2 1 2 1 1 1 1 1 2 2 2 2 2 2 3 3 3 3 3 3 2 1
5 3 4 3 1 3 0 6 7 4 5 6 7 6 6 5 4 4 3 2 1 2 1 2 1 1 1 1 1 0 0 1 2 2 2 3 2 2 2 2 3 3 3 3 4 3 3 3 3
3 2 2 2 2 2 2 3 8 2 6 8 8 7 6 6 5 4 4 3 2 1 1 2 2 2 2 2 1 1 1 1 1 1 1 2 2 2 2 2 2 3 3 4 4 3 3 3 3
4 4 4 3 2 4 5 5 7 5 7 6 5 5 5 4 4 3 2 1 0 1 1 2 2 2 2 2 1 1 1 1 1 1 2 2 2 2 2 2 2 3 3 4 4 4 5 4 4
3 4 2 2 1 6 3 5 9 6 5 6 6 5 4 2 2 2 1 1 1 1 1 1 1 2 3 2 2 1 1 1 2 2 2 2 2 2 3 3 3 3 3 3 3 4 4 4 5
4 5 6 5 5 4 2 7 7 4 4 3 3 3 2 2 2 2 2 2 1 1 1 1 1 2 2 3 3 2 1 1 1 2 2 2 3 3 4 3 3 3 3 3 2 2 4 3 4
5 4 4 5 1 2 6 6 7 2 2 2 2 1 2 2 2 2 1 1 1 1 1 1 1 2 3 3 3 2 2 1 2 2 2 2 3 3 3 3 3 3 3 3 3 2 3 3 4
3 6 4 4 3 4 5 5 5 5 4 3 2 2 3 2 1 1 1 1 1 1 1 1 1 1 2 2 2 2 3 2 2 2 2 3 3 3 3 3 3 3 3 3 3 3 3 3 4
4 3 4 3 4 4 4 7 4 5 4 3 3 3 3 3 2 1 1 1 1 2 2 2 2 2 2 3 3 3 3 3 2 2 2 3 3 3 3 3 2 3 3 3 3 3 3 4 4
3 5 6 5 4 4 3 7 3 2 2 2 3 3 2 1 1 0 1 1 1 2 2 2 3 3 3 3 2 3 3 3 3 3 3 3 3 3 3 2 2 3 2 3 3 4 4 4 5
Wind_Direction
339 349 54 54 59 56 234 253 235 260 207 46 105 114 133 134 145 160 178 134 134 141 149 147 136 130 129 127 124 121 122 122 121 119 119 118 117 115 112 110 109 107 107 106 104 102 102 99 96
339 8 52 61 101 152 257 246 233 225 180 121 74 85 87 79 55 104 116 131 130 134 139 144 136 132 128 126 126 126 126 125 124 123 121 121 120 119 117 116 113 110 109 108 107 106 106 103 101
6 46 79 84 135 184 214 220 212 312 27 98 78 64 101 102 92 149 160 137 120 118 129 142 137 133 128 126 128 127 130 131 128 125 124 124 123 123 120 119 118 113 110 109 109 107 107 106 105
61 48 59 92 196 219 225 237 179 88 29 46 97 71 49 5 314 171 130 128 121 115 124 138 135 132 128 126 127 126 127 130 133 130 126 125 127 125 123 123 122 119 117 116 114 113 110 109 107
58 79 80 154 230 244 259 269 199 60 59 30 96 109 38 356 31 100 122 124 126 119 116 131 134 131 126 126 125 123 124 125 130 134 133 130 127 128 125 124 125 125 123 121 119 116 115 112 110
61 79 126 214 234 254 271 278 118 49 31 55 96 114 91 11 64 101 113 112 114 116 106 122 129 127 124 124 123 121 117 120 119 127 131 132 131 129 126 128 126 125 127 127 124 120 115 115 115
114 123 178 199 220 243 253 206 143 166 208 255 151 118 101 16 57 102 101 100 96 95 91 95 116 119 120 120 123 120 118 119 120 117 121 126 126 131 129 128 133 131 126 123 126 126 123 120 116
126 123 163 201 204 235 258 151 135 166 213 329 113 140 190 193 104 95 91 87 89 82 78 72 87 99 107 113 119 118 116 119 120 120 115 117 123 124 128 127 131 135 132 127 128 127 133 129 124
99 109 198 207 197 223 201 101 15 62 99 44 46 70 79 120 113 100 93 83 86 86 73 73 75 81 92 106 112 113 112 111 114 119 118 111 114 123 125 129 131 139 144 139 142 136 130 126 124
108 175 216 210 191 188 184 146 167 96 67 28 33 33 71 102 114 117 118 124 124 126 103 78 81 76 83 99 102 102 107 106 107 113 118 118 115 117 122 124 134 147 151 149 147 148 130 111 104
146 186 210 231 236 185 163 122 8 130 167 214 183 147 118 109 111 127 134 141 159 164 123 96 93 83 89 88 98 98 102 106 104 107 119 127 119 113 112 117 124 133 136 130 139 137 121 117 116
138 220 207 269 269 163 173 141 66 134 223 221 153 145 134 130 133 148 149 146 137 123 125 100 107 96 90 93 101 102 102 111 115 121 126 128 120 114 115 120 137 134 128 124 123 122 129 133 142
169 207 256 303 55 84 100 127 156 254 298 78 97 105 130 141 137 130 116 116 112 129 137 141 127 124 110 99 104 111 124 134 141 142 148 146 139 147 142 141 141 144 145 138 138 147 151 163 167
179 157 351 342 34 46 116 281 149 241 112 89 98 117 137 145 144 116 92 78 72 182 203 194 164 143 124 132 141 134 137 147 147 151 169 169 161 158 158 156 155 164 175 180 176 175 172 189 191
118 97 353 326 204 207 95 312 223 221 129 110 118 137 132 130 127 140 160 151 149 311 205 162 166 132 152 159 172 153 155 157 144 156 169 175 178 174 169 175 185 199 198 184 170 171 174 188 203
80 88 264 286 166 228 153 247 245 194 143 157 169 166 158 127 104 91 90 71 25 5 1 213 141 140 167 170 177 162 154 153 150 163 162 181 195 191 172 179 198 193 174 164 163 173 208 209 216
68 192 230 276 207 137 184 241 254 198 171 192 200 199 198 282 345 4 24 56 41 27 10 13 71 130 174 162 125 116 109 121 143 158 164 192 195 197 178 183 194 167 154 160 187 190 194 212 222
202 199 216 232 252 173 219 247 263 226 200 207 211 219 226 246 268 291 358 32 47 39 34 25 33 37 67 87 96 74 59 15 42 165 216 215 209 207 180 185 184 166 172 183 195 199 185 202 213
166 178 221 241 286 209 235 255 262 238 211 217 223 223 232 252 276 316 20 36 48 33 34 28 19 7 35 17 214 209 239 258 265 300 298 266 239 213 178 185 187 188 196 203 195 188 176 195 139
167 195 228 293 342 229 266 270 263 227 221 216 216 221 225 239 276 279 309 35 53 19 11 14 7 353 355 341 293 236 229 230 248 318 334 302 256 225 202 189 206 209 198 191 193 181 183 199 157
206 202 214 241 343 1 321 288 254 242 228 228 225 224 226 220 228 242 245 266 3 341 324 325 332 347 349 353 21 22 36 31 334 308 302 327 314 262 230 219 213 216 200 200 206 201 193 209 228
226 208 193 193 204 281 240 277 268 239 245 238 234 227 228 231 229 233 239 246 250 278 318 329 327 347 356 12 32 46 224 262 271 288 293 316 323 311 278 245 220 219 216 211 211 208 210 192 213
187 132 140 156 167 284 255 238 279 237 245 244 233 227 228 227 221 225 232 233 238 267 329 339 342 351 2 17 1 267 258 246 288 321 316 320 312 307 301 278 241 233 228 222 218 214 216 208 207
138 89 63 56 84 254 224 204 272 233 230 244 237 230 232 230 228 235 240 222 306 2 14 11 9 353 355 4 354 304 247 244 316 318 307 308 305 293 285 285 264 252 246 232 223 218 215 218 218
122 115 49 350 297 247 213 216 252 250 238 234 234 232 233 227 220 229 240 255 315 2 7 3 12 347 345 347 335 306 267 236 239 260 269 295 300 287 275 272 258 254 257 253 233 216 217 216 216
177 157 169 201 224 272 254 235 253 261 269 263 248 238 231 234 233 234 234 236 255 281 329 356 359 345 344 343 331 322 305 286 274 275 275 276 282 282 283 271 262 261 257 258 248 230 228 223 217
152 183 158 136 139 267 260 275 297 267 305 314 301 289 258 253 248 247 263 268 255 263 282 292 333 349 341 337 334 322 313 298 291 297 295 291 288 296 298 282 261 254 249 244 235 234 240 235 226
147 142 122 150 177 247 273 262 251 259 262 283 297 294 287 289 300 311 336 346 331 310 311 337 346 319 319 329 325 324 316 307 302 307 306 301 298 299 296 295 272 252 244 237 229 236 240 240 240
145 146 145 144 164 180 252 265 231 223 230 247 272 278 270 277 293 314 341 355 354 360 2 4 358 352 344 336 327 325 324 329 328 313 303 301 299 302 295 285 282 263 243 230 227 238 240 241 247
198 181 160 172 215 192 205 267 285 226 248 257 278 297 294 273 275 303 4 3 1 357 358 2 355 349 337 331 336 333 329 337 335 323 319 312 302 300 297 293 285 278 268 246 235 242 246 242 247
Height
1496 1497 1498 1500 1504 1516 1516 1510 1506 1505 1504 1504 1504 1505 1507 1509 1513 1517 1514 1513 1515 1518 1520 1522 1523 1525 1526 1528 1530 1531 1532 1533 1534 1535 1536 1536 1537 1538 1539 1539 1540 1540 1541 1541 1542 1542 1543 1543 1544
1496 1497 1500 1500 1511 1522 1517 1508 1506 1504 1503 1503 1504 1505 1506 1508 1509 1511 1511 1513 1516 1518 1520 1521 1523 1525 1527 1528 1530 1531 1532 1533 1534 1535 1536 1537 1538 1538 1539 1540 1541 1541 1542 1542 1543 1543 1544 1544 1545
1496 1497 1500 1503 1513 1517 1510 1504 1504 1503 1503 1503 1504 1506 1507 1509 1510 1511 1512 1514 1516 1518 1520 1522 1524 1525 1527 1528 1530 1531 1532 1534 1535 1535 1536 1537 1538 1539 1540 1540 1541 1542 1542 1543 1544 1544 1545 1546 1546
1496 1499 1501 1508 1511 1509 1505 1503 1503 1503 1503 1504 1505 1507 1508 1510 1511 1512 1512 1514 1516 1518 1520 1522 1524 1525 1527 1528 1530 1531 1533 1534 1535 1535 1536 1537 1538 1539 1540 1541 1541 1542 1543 1544 1544 1545 1546 1546 1547
1496 1498 1505 1512 1509 1505 1503 1502 1502 1503 1504 1505 1505 1507 1509 1511 1511 1512 1513 1514 1516 1518 1520 1522 1524 1525 1527 1528 1530 1531 1533 1534 1535 1536 1536 1537 1538 1539 1540 1541 1541 1542 1543 1544 1545 1546 1546 1547 1548
1496 1499 1511 1512 1507 1504 1502 1502 1502 1503 1504 1505 1506 1507 1509 1511 1511 1512 1514 1515 1517 1519 1521 1522 1524 1525 1527 1528 1530 1531 1532 1533 1534 1535 1536 1537 1538 1539 1539 1540 1541 1542 1543 1544 1545 1546 1546 1547 1548
1497 1502 1507 1507 1506 1504 1502 1501 1502 1504 1504 1505 1506 1508 1509 1510 1511 1512 1514 1516 1518 1519 1521 1522 1523 1525 1527 1528 1529 1530 1532 1533 1534 1535 1536 1537 1538 1538 1539 1540 1541 1542 1542 1543 1544 1545 1546 1547 1548
1495 1501 1505 1507 1505 1503 1501 1501 1501 1503 1504 1506 1506 1507 1508 1510 1511 1512 1514 1516 1518 1519 1521 1522 1523 1524 1526 1527 1528 1530 1531 1532 1533 1534 1535 1536 1537 1538 1539 1539 1540 1541 1542 1543 1544 1545 1545 1546 1547
1495 1504 1506 1504 1503 1501 1500 1501 1502 1502 1504 1505 1506 1507 1508 1509 1510 1512 1514 1515 1517 1519 1520 1521 1522 1524 1525 1526 1527 1529 1530 1531 1532 1533 1534 1535 1536 1537 1538 1538 1539 1540 1541 1542 1543 1544 1545 1546 1546
1495 1503 1500 1498 1499 1499 1499 1500 1501 1502 1504 1504 1505 1506 1507 1508 1510 1511 1512 1514 1515 1517 1519 1520 1522 1523 1524 1525 1526 1527 1529 1530 1531 1531 1532 1533 1534 1535 1536 1537 1538 1539 1540 1541 1542 1543 1544 1544 1545
1494 1498 1497 1497 1497 1498 1499 1500 1500 1501 1504 1504 1504 1505 1506 1507 1509 1510 1512 1513 1514 1516 1518 1519 1520 1521 1523 1524 1525 1526 1527 1528 1529 1530 1531 1532 1533 1534 1535 1535 1536 1538 1538 1539 1540 1541 1542 1543 1544
1495 1496 1496 1496 1497 1497 1498 1499 1501 1501 1503 1503 1503 1504 1505 1506 1508 1509 1511 1513 1514 1515 1516 1518 1519 1520 1521 1523 1524 1525 1526 1527 1528 1529 1530 1530 1531 1532 1533 1534 1535 1536 1536 1537 1538 1539 1541 1541 1542
1495 1495 1496 1496 1496 1497 1498 1499 1500 1501 1502 1502 1503 1504 1505 1506 1507 1509 1510 1512 1512 1513 1515 1516 1517 1518 1520 1521 1522 1523 1524 1525 1526 1527 1528 1529 1529 1530 1531 1532 1533 1534 1534 1535 1536 1537 1538 1539 1540
1494 1495 1495 1496 1496 1497 1498 1499 1500 1500 1501 1501 1502 1503 1504 1505 1506 1508 1509 1510 1511 1512 1513 1514 1516 1517 1518 1519 1520 1521 1522 1523 1524 1525 1526 1526 1527 1528 1529 1529 1530 1531 1532 1533 1534 1535 1535 1536 1538
1493 1496 1496 1496 1496 1497 1498 1499 1499 1499 1500 1500 1501 1502 1503 1505 1506 1506 1507 1508 1509 1510 1511 1512 1514 1515 1516 1517 1518 1519 1520 1521 1522 1522 1523 1524 1525 1526 1526 1527 1528 1529 1529 1530 1531 1532 1533 1534 1534
1494 1498 1500 1497 1496 1497 1501 1500 1497 1497 1498 1499 1500 1501 1502 1503 1504 1505 1506 1507 1508 1508 1509 1510 1511 1513 1514 1515 1516 1517 1517 1518 1519 1520 1521 1521 1522 1523 1524 1524 1525 1526 1527 1527 1528 1529 1530 1530 1531
1499 1502 1501 1499 1497 1497 1499 1498 1496 1496 1497 1498 1499 1500 1501 1502 1503 1503 1504 1505 1506 1507 1507 1507 1509 1510 1511 1512 1513 1514 1515 1515 1516 1517 1518 1518 1519 1520 1521 1521 1522 1523 1524 1524 1525 1526 1526 1527 1528
1499 1501 1500 1500 1498 1498 1499 1498 1495 1495 1496 1497 1498 1499 1499 1500 1501 1502 1503 1503 1504 1504 1505 1505 1506 1507 1508 1509 1510 1511 1512 1512 1513 1514 1514 1515 1516 1517 1518 1518 1519 1520 1521 1521 1522 1522 1523 1524 1525
1496 1498 1499 1499 1498 1499 1498 1497 1494 1494 1495 1495 1496 1496 1497 1498 1499 1500 1501 1501 1502 1502 1502 1502 1503 1504 1505 1506 1506 1507 1508 1509 1510 1511 1511 1512 1512 1513 1514 1515 1516 1517 1517 1517 1518 1519 1520 1521 1521
1496 1498 1499 1499 1499 1499 1499 1496 1492 1492 1491 1492 1492 1493 1494 1495 1496 1497 1498 1498 1499 1499 1500 1500 1500 1501 1501 1502 1503 1504 1504 1505 1506 1507 1508 1508 1509 1510 1510 1511 1512 1513 1514 1514 1515 1516 1516 1517 1518
1496 1498 1499 1500 1500 1500 1501 1495 1491 1489 1489 1489 1490 1490 1491 1492 1493 1494 1495 1495 1496 1497 1498 1498 1498 1498 1498 1499 1500 1500 1501 1502 1503 1503 1504 1504 1505 1506 1507 1508 1508 1509 1510 1510 1511 1512 1513 1514 1515
1495 1496 1497 1499 1503 1506 1504 1502 1490 1488 1488 1486 1486 1487 1488 1489 1490 1491 1492 1493 1494 1495 1495 1496 1496 1496 1496 1496 1497 1497 1497 1497 1498 1499 1500 1501 1501 1502 1503 1504 1505 1505 1506 1507 1507 1508 1509 1510 1511
1494 1496 1498 1500 1504 1508 1507 1507 1491 1488 1486 1483 1483 1483 1484 1486 1487 1488 1489 1490 1491 1492 1493 1493 1493 1493 1493 1493 1494 1494 1494 1494 1495 1495 1496 1497 1498 1498 1499 1500 1500 1501 1502 1502 1503 1504 1505 1506 1506
1494 1498 1502 1506 1508 1508 1505 1506 1492 1488 1482 1480 1479 1480 1481 1483 1484 1486 1487 1488 1488 1489 1490 1490 1490 1490 1491 1491 1491 1491 1491 1491 1491 1491 1492 1492 1493 1494 1495 1495 1496 1496 1497 1498 1499 1499 1500 1501 1502
1494 1500 1509 1510 1515 1508 1504 1502 1490 1480 1478 1477 1477 1478 1479 1480 1482 1483 1483 1484 1485 1486 1487 1487 1487 1487 1488 1488 1488 1488 1488 1488 1488 1488 1488 1488 1489 1490 1490 1491 1491 1492 1493 1493 1494 1495 1495 1496 1497
1494 1496 1505 1508 1513 1510 1506 1500 1485 1478 1476 1475 1476 1476 1477 1478 1479 1480 1481 1481 1482 1483 1484 1484 1484 1484 1485 1485 1485 1485 1485 1485 1484 1484 1484 1484 1485 1485 1486 1486 1487 1487 1488 1488 1489 1489 1490 1491 1492
1493 1497 1499 1509 1515 1513 1503 1496 1483 1476 1475 1475 1474 1474 1474 1475 1476 1477 1478 1479 1479 1480 1481 1481 1481 1481 1482 1482 1482 1482 1482 1482 1481 1481 1481 1481 1480 1481 1481 1481 1482 1482 1483 1483 1484 1484 1485 1486 1487
1491 1495 1503 1506 1507 1504 1498 1495 1485 1476 1475 1474 1474 1473 1473 1474 1475 1475 1476 1476 1477 1478 1478 1478 1478 1478 1478 1479 1479 1479 1479 1478 1478 1477 1477 1477 1477 1476 1476 1476 1477 1477 1478 1478 1479 1479 1480 1481 1482
1493 1496 1498 1504 1505 1506 1503 1489 1476 1475 1474 1474 1474 1473 1473 1473 1473 1474 1474 1474 1475 1475 1475 1475 1475 1475 1476 1476 1475 1475 1475 1475 1474 1474 1473 1473 1473 1472 1472 1471 1472 1472 1472 1473 1474 1474 1475 1475 1476
1490 1491 1496 1499 1504 1508 1507 1491 1474 1473 1473 1473 1473 1473 1472 1472 1472 1472 1473 1473 1473 1473 1473 1473 1473 1473 1473 1473 1472 1472 1472 1471 1471 1470 1470 1469 1469 1469 1468 1467 1467 1468 1468 1468 1469 1469 1470 1470 1471